www.pogodaiklimat.ru

Погода и климат >> Архив погоды >> Канада >> Waterloo Wellington


ПОГОДА в Waterloo Wellington

  • Прогноз погоды в Waterloo Wellington
  • Монитор погоды в Waterloo Wellington
  • Климат города

АРХИВ ПОГОДЫ в Waterloo Wellington

Время (UTC), дата Ветер
(напр.,м/с)
 
Видим.   Явления Облачность Т
(С)
Тd
(С)
f
(%)
Тe
(С)
Тes
(С)
Комфортность P
(гПа)
Po
(гПа)
Тmin
(С)
Tmax
(С)
R
(мм)
R24
(мм)
S
(см)
03 16.07 В 1 16 км {осадки} ясно +20.5 +19.6 95 +26 +26 душно 1014.9 977.3
06 16.07 В 2 2800 м дымка ясно +18.8 +18.6 99 +21 +21 комфорт 1014.5 977.0 +16.6 +31.8
09 16.07 В 1 1200 м дымка ясно +18.0 +17.8 99 +19 +19 1014.1 976.6
12 16.07 Ю 1 8000 м дымка 10/0
[]
+23.3 +21.2 88 +31 +33 очень
душно
1013.9 976.4 +17.2 +31.8
15 16.07 Ю 5 16 км 9/0
[]
+30.2 +21.0 58 +38 +42 очень
душно
1013.3 975.9
18 16.07 ЮЗ 6 16 км 3/3 1000 м
[]
+32.7 +20.6 49 +40 +45 очень
душно
1011.5 974.2 +17.2 +33.1
21 16.07 С 2 16 км {осадки} 10/0
[]
+26.0 +23.0 84 +35 +39 очень
душно
1010.8 973.3
00 17.07 В 3 16 км слаб. дождь {осадки} 10/0 2000 м
[]
+21.2 +20.2 94 +26 +26 душно 1010.3 972.8 +17.2 +33.5 27
03 17.07 СЗ 2 14 км ясно +19.2 +18.9 98 +22 +22 комфорт 1010.7 973.3
06 17.07 СЗ 3 8000 м дымка 3/3 1000 м
[]
+19.9 +19.4 97 +24 +24 комфорт 1010.7 973.4 +17.2 +33.5 222
09 17.07 СЗ 3 16 км 10/10 1000 м
[]
+18.1 +16.3 89 +18 +18 1010.9 973.4
12 17.07 СЗ 4 16 км 3/3 1500 м
[]
+18.1 +14.3 78 +18 +20 1013.1 975.3 +16.9 +33.5
15 17.07 СЗ 5 16 км ясно +22.9 +12.7 53 +26 +34 жарко 1013.5 975.8
18 17.07 З 7 16 км 9/9 1500 м
[]
+24.8 +11.3 43 +26 +27 жарко 1013.3 975.7 +16.9 +25.0
21 17.07 СЗ 6 16 км 3/3 1500 м
[]
+23.9 +12.5 49 +26 +29 жарко 1013.4 975.7
00 18.07 СЗ 6 16 км ясно +20.5 +12.6 60 +22 +23 комфорт 1014.8 977.0 +16.9 +25.7
03 18.07 СЗ 4 16 км ясно +15.8 +12.8 82 +15 +15 1016.3 978.4
06 18.07 СЗ 3 16 км ясно +13.7 +12.3 91 +12 +12 1016.9 979.0 +13.7 +25.7 221
09 18.07 С 2 16 км ясно +12.8 +12.0 95 +12 +12 1017.8 979.8
12 18.07 С 3 16 км ясно +16.0 +12.8 81 +16 +18 1019.2 981.1 +11.9 +25.7
15 18.07 С 3 16 км 3/3 600 м
[]
+20.2 +11.8 58 +22 +31 комфорт 1019.4 981.3
18 18.07 С 2 16 км 5/5 1500 м
[]
+22.2 +10.0 46 +24 +33 комфорт 1018.5 980.4 +11.9 +23.2
21 18.07 З 3 16 км ясно +24.2 +9.6 40 +25 +33 комфорт 1017.2 979.2
00 19.07 СЗ 3 16 км ясно +22.3 +10.0 46 +24 +24 комфорт 1017.1 979.2 +11.9 +25.2
03 19.07 С 5 16 км ясно +16.8 +10.5 66 +16 +16 1018.3 980.3
06 19.07 С 1 16 км ясно +11.1 +10.0 93 +11 +11 1018.7 980.5 +11.1 +25.2
09 19.07 С 2 16 км ясно +9.8 +9.0 95 +8 +8 1019.0 980.9
12 19.07 З 1 16 км ясно +13.9 +10.9 82 +14 +17 1019.8 981.7 +8.7 +25.2
15 19.07 С 2 16 км ясно +21.6 +11.8 54 +24 +39 комфорт 1019.9 981.9
18 19.07 Ю 3 16 км 3/3 1500 м
[]
+25.1 +11.9 44 +27 +37 жарко 1018.8 980.7 +8.7 +25.5
21 19.07 ЮЗ 2 16 км ясно +26.5 +11.4 39 +28 +37 жарко 1017.7 979.7
00 20.07 Ю 5 16 км ясно +24.5 +13.3 50 +27 +27 жарко 1017.2 979.3 +8.7 +27.1
03 20.07 В 1 16 км ясно +15.8 +12.8 82 +16 +16 1017.4 979.4
06 20.07 СВ 2 16 км ясно +13.7 +12.8 94 +13 +13 1017.0 979.1 +8.7 +27.1 14
09 20.07 В 2 16 км ясно +12.9 +11.6 92 +12 +12 1016.3 978.4
12 20.07 В 3 16 км ясно +19.8 +16.3 80 +23 +25 комфорт 1015.9 978.2 +11.8 +27.1
15 20.07 ЮВ 7 16 км ясно +26.2 +18.4 62 +31 +35 очень
душно
1015.1 977.4
18 20.07 ЮВ 8 16 км 9/9 1000 м
[]
+28.5 +17.0 50 +32 +33 душно 1013.7 976.0 +11.8 +29.2
21 20.07 В 8 16 км 5/5 1500 м
[]
+27.7 +16.5 50 +31 +32 душно 1012.4 974.7
00 21.07 В 5 16 км 10/0 2000 м
[]
+25.6 +16.6 58 +29 +29 душно 1011.4 973.9 +11.8 +30.1
03 21.07 ЮВ 2 11 км слаб. дождь {осадки} 10/10 1500 м
[]
+20.4 +19.6 95 +25 +25 комфорт 1012.0 974.5
06 21.07 В 4 16 км {осадки} 3/0
[]
+20.1 +18.4 90 +24 +24 комфорт 1011.3 973.9 +11.8 +30.1 8 181
09 21.07 В 5 16 км 9/0
[]
+19.7 +17.4 87 +22 +22 комфорт 1010.6 973.2
12 21.07 В 5 16 км 10/10 1000 м
[]
+21.3 +17.3 78 +25 +25 комфорт 1011.3 973.8 +19.7 +30.1
15 21.07 ЮВ 6 16 км 10/10 600 м
[]
+23.9 +17.0 65 +28 +28 душно 1012.1 974.5
18 21.07 В 7 16 км 10/10 1000 м
[]
+23.3 +17.6 70 +29 +29 душно 1012.1 974.5 +19.7 +25.5
21 21.07 В 5 16 км 10/0
[]
+22.9 +18.3 75 +29 +31 очень
душно
1012.0 974.4
00 22.07 В 6 16 км 10/10 1000 м
[]
+22.3 +17.7 75 +27 +27 душно 1011.9 974.3 +19.7 +25.5
03 22.07 В 5 16 км 9/0
[]
+21.1 +16.9 77 +25 +25 комфорт 1012.1 974.6
06 22.07 В 7 16 км 10/10 1500 м
[]
+18.7 +14.5 77 +19 +19 1011.9 974.3 +18.7 +25.5 18
09 22.07 В 3 16 км слаб. дождь {осадки} 10/10 1000 м
[]
+14.7 +13.5 93 +14 +14 1011.1 973.4
12 22.07 С 4 12 км дождь {осадки} 10/10 1500 м
[]
+15.8 +14.9 94 +15 +15 1009.5 971.8 +14.7 +25.5 4
15 22.07 С 5 4800 м слаб. дождь {осадки} 10/10 200 м
[]
+16.8 +16.1 96 +16 +16 1007.8 970.2
18 22.07 С 3 4800 м слаб. дождь {осадки} 10/10 100 м
[]
+17.8 +17.3 97 +18 +18 1007.4 969.8 +14.7 +18.6 8
21 22.07 ЮВ 5 16 км {осадки} 10/10 300 м
[]
+20.1 +17.8 87 +23 +23 комфорт 1008.8 971.1
00 23.07 ЮВ 4 16 км 10/10 600 м
[]
+20.3 +17.6 84 +24 +24 комфорт 1011.2 973.4 +14.7 +21.8

 

Местоположение метеостанции Waterloo Wellington (Канада): широта 43.45 долгота -80.38 высота над уровнем моря 317 м.

В архиве по умолчанию представлена погода в Waterloo Wellington за последнюю неделю. Архивные данные за месяц целиком и за предыдущие месяцы, начиная с января 2011 года, Вы можете получить, выбрав интересующий диапазон дат из раскрывающегося списка и нажав кнопку "Ввод!".


*Определитесь, кто Вы:
робот инопланетянин человек

Внимание! Время в таблицах - всемирное. Для получения местного времени необходимо прибавить поправку, которая в Waterloo Wellington равна -5 ч.

Смотрите также архив погоды в соседних городах и на ближайших метеорологических станциях:

Погода в Guelph Turfgrass (Канада) (17 км)
Погода в Elora Rcs (Канада) (22 км)
Погода в Brantford Airport (Канада) (36 км)
Погода в Hamilton Rbg Cs (Канада) (43 км)
Погода в Hamilton Airport (Канада) (48 км)
Погода в Burlington Piers (Канада) (50 км)
Погода в Toronto (Канада) (65 км)
Погода в Delhi (Канада) (66 км)
Погода в Mount Forest (Канада) (66 км)
Погода в Simcoe (Канада) (67 км)

Пояснения к столбцам:

Ветер - указаны скорость ветра в м/с - средняя за 10 мин, порывы в срок и между сроками (в фигурных скобках) и направление, откуда дует ветер: С - северный, СВ - северо-восточный, В - восточный, ЮВ - юго-восточный, Ю - южный, ЮЗ - юго-западный, З - западный, СЗ - северо-западный.
Видимость - горизонтальная дальность видимости в метрах или километрах. При видимости от 1 до 10 км при отсутствии осадков обычно наблюдается дымка, при ухудшении видимости до 1 км и менее - туман. В сухую погоду видимость может ухудшаться дымом, пылью или мглою.
Явления - указаны атмосферные явления, наблюдавшиеся в срок или в последний час перед сроком; фигурными скобками обозначены явления, наблюдавшиеся между сроками (за 1-3 часа до срока); квадратными скобками обозначены град или гололедные отложения с указанием их диаметра в мм.
Облачность - указаны через наклонную черту общая и нижняя облачность в баллах и высота нижней границы облаков в метрах; квадратными скобками обозначены формы облаков: Ci - перистые, Cs - перисто-слоистые, Cc - перисто-кучевые, Ac - высококучевые, As - высокослоистые, Sc - слоисто-кучевые, Ns - слоисто-дождевые, Cu - кучевые, Cb - кучево-дождевые. Подробнее классификацию облаков см. в Атласе облаков (PDF).
T - Температура воздуха - температура, измеренная на высоте 2 м над землей.
Td - Температура точки росы - температура, при понижении до которой содержащийся в воздухе водяной пар достигнет насыщения.
f - Относительная влажность воздуха - влажноcть воздуха, измеренная на высоте 2 м над землей.
Te - Эффективная температура - температура, которую ощущает одетый по сезону человек в тени. Характеристика душности погоды. При расчете учитывается влияние влажности воздуха и скорости ветра на теплоощущения человека.
Tes - Эффективная температура на солнце - температура, которую ощущает человек, с поправкой на солнечный нагрев. Характеристика знойности погоды. Зависит от высоты солнца над горизонтом, облачности и скорости ветра. Ночью, в пасмурную погоду, а также при ветре 12 м/с и более поправка равна нулю.
P - Атмосферное давление - приведенное к уровню моря атмосферное давление.
Po - Атмосферное давление - измеренное на уровне метеостанции атмосферное давление.
Tmin - Минимальная температура - минимум температуры воздуха на высоте 2 м над землей.
Tmax - Максимальная температура - максимум температуры воздуха на высоте 2 м над землей.
R - Количество осадков - Количество выпавших осадков за период времени, мм. При наведении курсора мыши на число - период времени, за который выпало указанное количество осадков.
R24 - Количество осадков - Количество выпавших осадков за 24 часа, мм.
S - Снежный покров - Высота снежного покрова, см. При наведении курсора мыши на число - состояние снежного покрова и степень покрытия местности в баллах.